TimeCDT,TemperatureF,Dew PointF,Humidity,Sea Level PressureIn,VisibilityMPH,Wind Direction,Wind SpeedMPH,Gust SpeedMPH,PrecipitationIn,Events,Conditions,WindDirDegrees,DateUTC
12:53 AM,43.0,37.9,82,30.25,10.0,NNW,5.8,-,N/A,,Clear,340,2012-10-27 05:53:00
1:53 AM,42.1,37.0,82,30.25,10.0,NNW,5.8,-,N/A,,Clear,340,2012-10-27 06:53:00
2:53 AM,41.0,37.0,86,30.24,10.0,North,4.6,-,N/A,,Clear,350,2012-10-27 07:53:00
3:53 AM,41.0,36.0,82,30.23,10.0,North,5.8,-,N/A,,Clear,10,2012-10-27 08:53:00
4:53 AM,41.0,35.1,79,30.23,10.0,North,5.8,-,N/A,,Clear,360,2012-10-27 09:53:00
5:53 AM,41.0,34.0,76,30.25,10.0,North,8.1,-,N/A,,Clear,10,2012-10-27 10:53:00
6:53 AM,41.0,33.1,73,30.25,10.0,NNE,9.2,-,N/A,,Clear,20,2012-10-27 11:53:00
7:53 AM,41.0,33.1,73,30.26,10.0,NNE,8.1,-,N/A,,Clear,20,2012-10-27 12:53:00
10:53 AM,48.9,34.0,56,30.29,10.0,NNE,10.4,17.3,N/A,,Clear,20,2012-10-27 15:53:00
11:53 AM,51.1,34.0,52,30.27,10.0,NE,9.2,-,N/A,,Clear,40,2012-10-27 16:53:00
12:53 PM,53.1,33.1,47,30.24,10.0,North,8.1,17.3,N/A,,Clear,10,2012-10-27 17:53:00
1:53 PM,55.0,30.9,40,30.20,10.0,Variable,6.9,-,N/A,,Clear,0,2012-10-27 18:53:00
2:53 PM,57.0,30.9,37,30.17,10.0,NNW,8.1,-,N/A,,Clear,340,2012-10-27 19:53:00
3:53 PM,57.9,30.9,36,30.15,10.0,NNE,10.4,16.1,N/A,,Clear,30,2012-10-27 20:53:00
4:53 PM,57.9,30.9,36,30.14,10.0,North,8.1,-,N/A,,Clear,10,2012-10-27 21:53:00
5:53 PM,57.0,30.9,37,30.13,10.0,North,5.8,-,N/A,,Clear,360,2012-10-27 22:53:00
6:53 PM,48.0,36.0,63,30.15,10.0,Calm,Calm,-,N/A,,Clear,0,2012-10-27 23:53:00
7:53 PM,46.9,36.0,66,30.16,10.0,Calm,Calm,-,N/A,,Clear,0,2012-10-28 00:53:00
8:53 PM,46.9,34.0,61,30.17,10.0,North,3.5,-,N/A,,Clear,360,2012-10-28 01:53:00
9:53 PM,46.0,35.1,66,30.19,10.0,North,3.5,-,N/A,,Clear,10,2012-10-28 02:53:00
11:53 PM,43.0,36.0,76,30.20,10.0,Calm,Calm,-,N/A,,Clear,0,2012-10-28 04:53:00